THOR ABLESTAR DEB, 243

Orbit data source: Space-Track

THOR ABLESTAR DEB, 243 is space debris in LEO originally from a launch on Thu, 29 Jun 1961 UTC launched from the Air Force Eastern Test Range (AFETR). Debris objects in space refer to the collection of defunct objects orbiting the Earth. Examples of debris include non-operational satellites, rocket bodies, and fragments generated from explosions, collisions, or faulty payload assembly.

Loading next visibility...
Identifier
243, 1961-015BY
Orbit
LEO
Last TLE update
1 day ago
Origin
Manufacturer
Unknown
Mission
Spacecraft
Bus & Motor
Unknown
Mass
Unknown
Launch date (UTC)
1961-06-29 (64 years ago)
Launch vehicle
Unknown
Launch site
Air Force Eastern Test Range (AFETR)
Object type
Payload
Rocket body
Debris
Shape & HBR
Unknown
Radar Cross Section
Small (<0.1 m²)

Expand to show TLE details & history

TLE from 1 day ago
0 THOR ABLESTAR DEB
1 00243U 61015BY  25128.69950878  .00001017  00000-0  72837-3 0  9991
2 00243  66.4628 302.9917 0031436 335.6416  24.3178 14.01087330226618
Epoch: 2025-05-08T16:47Z
Definitive object data (Epoch: 2025-05-08T16:47:17.558Z)
Latitude
Longitude
-175.59771°
Altitude
871.281 km
Speed
7.428 km/s
True Right ascension
20h 11m 58s
True Declination
0° 00' 00"
Sunlit
Object was in daylight at TLE epoch
Visualization TLE readout
Latitude
-6.46302°
Longitude
4.06816°
Altitude
912.495 km
Speed
7.386 km/s
Apparent Right ascension
10h 10m 51s
Apparent Declination
-58° 37' 46"
Sunlit
Object is in daylight
Visualization observer readout
Local Sidereal Time
06:59:41
Azimuth
156.32° SSE
Elevation
-16.239°
Doppler factor
1
Orbital elements
Apogee altitude
911.3 km
Perigee altitude
865.614 km
Semi-major axis
7,266.594 km
Eccentricity
0.0031436
Inclination
66.4628°
RAAN
302.9917°
Arg. of periapsis
335.6416°
True anomaly
24.46667°
Mean anomaly
24.3178°
Eccentric anomaly
24.39218°
Mean motion
3.50386 °/min
BSTAR
0.00072837
Orbital period
102.74 mins
Loading maneuver chart data...
Loading SW <> Apogee altitude chart data...

THOR ABLESTAR DEB Visibility forecast

Observer location: undefined°, undefined°

Span
Click to sort rows by Start time (UTC) header in descending order
Start Az.
Max El. time (UTC)
Max El. Az.
Max El.
End time (UTC)
End Az.
8 mins2025-05-10 11:44:09.660Z151.542° SSE2025-05-10 11:48:09.660Z104.448° ESE20.536°2025-05-10 11:52:09.660Z59.536° ENE
9 mins2025-05-10 13:29:09.660Z230.707° WSW2025-05-10 13:33:09.660Z299.927° NW39.633°2025-05-10 13:38:09.660Z19.421° NNE
8 mins2025-05-10 20:43:09.660Z359.174° N2025-05-10 20:47:09.660Z49.146° ENE23.09°2025-05-10 20:51:09.660Z96.412° ESE
9 mins2025-05-10 22:29:09.660Z318.026° NNW2025-05-10 22:33:09.660Z241.897° WSW40.847°2025-05-10 22:38:09.660Z168.996° S
|